#timestamp,LO_Frequency,Hit,StdDev 
1638061215.0,286046998.8,N
1638061215.9,286046998.8,N
1638061265.8,286047001.0,E
1638061275.7,286047000.4,N
1638061295.5,286047002.4,P
1638061315.4,286047004.5,P
1638061335.2,286047010.7,Y
1638061355.1,286047009.2,P
1638061356.0,286047009.2,N
1638061375.8,286047000.0,N
1638061395.6,286046999.8,N
1638061415.5,286047002.4,N
1638061435.3,286047000.0,N
1638061455.2,286047001.6,N
1638061475.9,286047005.6,N
1638061495.7,286047004.3,N
1638061515.6,286046999.8,N
1638061535.4,286046998.8,N
1638061555.2,286046998.9,N
1638061575.1,286047005.3,N
1638061576.0,286047005.3,N
1638061595.8,286047004.1,N
1638061615.7,286047001.8,N
1638061635.5,286047000.4,N
1638061655.3,286046995.0,N
1638061675.2,286047001.1,N
1638061695.9,286047004.9,N
1638061715.7,286047002.5,N
1638061735.6,286047008.8,N
1638061755.4,286047008.3,N
1638061775.2,286047010.8,N
1638061795.1,286047003.9,N
1638061796.0,286047003.9,N
1638061815.8,286047001.2,N
1638061835.7,286047003.2,N
1638061855.5,286047008.6,N
1638061875.3,286047001.8,N
1638061895.2,286046997.2,N
1638061915.0,286047011.9,Y
1638061915.9,286047001.5,P
1638061935.8,286046993.7,P
1638061955.6,286046991.0,N
1638061975.4,286047000.8,N
1638061995.3,286046997.2,N
1638062015.1,286047000.6,N
1638062035.8,286046994.5,N
1638062055.7,286046994.3,N
1638062075.5,286046998.0,N
1638062095.4,286046999.5,N
1638062115.2,286047003.0,N
1638062135.0,286047005.9,N
1638062135.9,286047005.9,N
1638062155.8,286046998.1,N
1638062175.6,286046995.3,N
1638062195.4,286046997.4,N
1638062215.3,286047000.2,N
1638062235.1,286047002.8,N
1638062255.9,286046999.8,N
1638062275.7,286047006.2,N
1638062295.5,286047004.8,N
1638062315.4,286046998.2,N
1638062335.2,286047000.1,N
1638062355.1,286047003.1,N
1638062356.0,286047003.1,N
1638062375.8,286047001.1,N
1638062395.6,286046999.0,N
1638062415.5,286046995.9,N
1638062435.3,286046991.3,N
1638062455.1,286047000.8,N
1638062475.9,286047006.0,N
1638062495.7,286046998.3,N
1638062515.6,286047003.7,N
1638062535.4,286047008.7,N
1638062555.2,286047003.7,N
1638062575.1,286047006.3,N
1638062576.0,286047006.3,N
1638062595.8,286047004.8,N
1638062615.7,286047012.0,Y
1638062635.5,286047009.0,P
1638062655.3,286047004.2,N
1638062675.2,286047000.1,N
1638062695.9,286047000.3,N
1638062715.7,286047007.4,N
1638062735.6,286047009.6,N
1638062755.4,286047012.1,Y
1638062775.3,286047003.2,P
1638062795.1,286047002.0,N
1638062796.0,286047002.0,N
1638062815.8,286047006.0,Y
1638062835.7,286046996.6,P
1638062855.5,286046996.0,N
1638062875.3,286046999.5,N
1638062895.2,286046998.8,N
1638062915.0,286047006.4,N
1638062915.9,286047006.4,N
1638062935.8,286047004.5,N
1638062955.6,286047006.0,N
1638062975.4,286047010.6,N
1638062995.3,286047002.1,N
1638063015.1,286046995.0,N
1638063035.8,286046996.0,N
1638063055.7,286046992.1,N
1638063075.5,286046989.3,N
1638063095.4,286046989.9,N
1638063115.2,286046985.8,N
1638063135.0,286046990.6,N
1638063135.9,286046990.6,N
1638063155.8,286046993.4,N
1638063175.6,286046990.3,N
1638063195.4,286046992.3,N
1638063215.3,286046995.6,N
1638063235.1,286047000.4,N
1638063255.9,286046998.2,N
1638063275.7,286047001.0,N
1638063295.5,286047009.0,N
1638063315.4,286047006.6,N
1638063335.2,286047009.1,N
1638063355.0,286047012.0,N
1638063355.9,286047012.0,N
1638063375.8,286047009.1,N
1638063395.6,286047008.2,N
1638063415.5,286047002.1,N
1638063435.3,286046998.3,N
1638063455.1,286047004.1,N
1638063475.9,286047004.6,N
1638063495.7,286047013.0,N
1638063515.5,286047016.9,N
1638063535.4,286047018.8,N
1638063555.2,286047019.8,N
1638063575.1,286047021.5,N
1638063576.0,286047021.5,N
1638063595.8,286047015.5,N
1638063615.6,286047014.4,N
1638063635.5,286047011.1,N
1638063655.3,286047010.7,N
1638063675.1,286047016.8,N
1638063695.9,286047011.9,N
1638063715.7,286047016.9,N
1638063735.6,286047022.0,N
1638063755.4,286047025.0,Y
1638063775.2,286047018.6,P
1638063795.1,286047016.1,P
1638063796.0,286047016.1,P
1638063815.8,286047015.5,Y
1638063835.7,286046997.9,P
1638063855.5,286046992.8,N
1638063875.3,286046991.0,N
1638063895.2,286046994.1,N
1638063915.0,286046993.9,N
1638063915.9,286046993.9,N
1638063935.7,286046997.5,N
1638063955.6,286047000.5,N
1638063975.4,286047001.2,N
1638063995.3,286046997.7,N
1638064015.1,286046995.3,N
1638064016.0,286046995.3,N
1638064035.8,286047000.4,N
1638064055.7,286047001.1,N
1638064075.5,286047001.1,N
1638064095.4,286047003.9,N
1638064115.2,286047000.1,N
1638064135.0,286046998.3,N
1638064135.9,286046998.3,N
1638064155.8,286046997.1,N
1638064175.6,286046993.8,N
1638064195.4,286047001.0,N
1638064215.3,286047001.1,N
1638064235.1,286046999.1,N
1638064255.9,286047000.1,N
1638064275.7,286047005.1,N
1638064295.5,286047005.8,N
1638064315.4,286046993.5,N
1638064335.2,286046995.2,N
1638064355.0,286047001.1,N
1638064355.9,286047001.1,N
1638064375.8,286047004.9,N
1638064395.6,286047007.0,N
1638064415.5,286047008.4,N
1638064435.3,286047004.5,N
1638064455.1,286047004.9,N
1638064475.9,286047003.3,N
1638064495.7,286047006.7,N
1638064515.5,286047002.7,N
1638064535.4,286047005.2,N
1638064555.2,286047000.9,N
1638064575.1,286047004.8,N
1638064576.0,286047004.8,N
1638064595.8,286047010.7,N
1638064615.6,286047012.1,N
1638064635.5,286047007.0,N
1638064655.3,286047002.3,N
1638064675.2,286047000.3,N
1638064695.9,286047007.2,N
1638064715.7,286047007.3,N
1638064735.6,286047004.6,N
1638064755.4,286047003.5,N
1638064775.3,286047013.8,Y
1638064795.1,286046999.8,P
1638064796.0,286046999.8,N
